Regional Weather Roundup
Issued by NWS

Home | Current Version | Previous Version | Graphics & Text | Print | Product List | Glossary On
Versions: 1 2 3 4 5 6 7 8 9 10 11 12 13 14 15 16 17 18 19 20 21 22 23 24 25 26 27 28 29 30 31 32 33 34 35 36 37 38 39 40 41 42 43 44 45 46 47 48 49 50
007
ASUS43 KFSD 161102
RWRSD

WEATHER ROUNDUP FOR SOUTH DAKOTA
NATIONAL WEATHER SERVICE SIOUX FALLS SD
500 AM CST MON JAN 16 2017

NOTE: "FAIR" INDICATES FEW OR NO CLOUDS BELOW 12,000 FEET WITH NO
SIGNIFICANT WEATHER AND/OR OBSTRUCTIONS TO VISIBILITY.


SDZ001>005-009-010-012>017-161200-
NORTHWEST AND NORTH CENTRAL SOUTH DAKOTA

CITY           SKY/WX    TMP DP  RH WIND       PRES   REMARKS
BUFFALO          N/A     13   3  64 W13       29.99R WCI  -2
FAITH            N/A     10   3  73 NW10      30.05R WCI  -4
MOBRIDGE       CLOUDY    -1  -6  79 SE3       30.04F
$$

SDZ012>016-024>037-041>051-057-063-072>074-161200-
SOUTHWEST AND SOUTH CENTRAL SOUTH DAKOTA

CITY           SKY/WX    TMP DP  RH WIND       PRES   REMARKS
RAPID CTY ARPT CLOUDY    26   9  48 W8        30.05R WCI  18
PIERRE         CLOUDY     9   6  88 W5        30.08S WCI   1
CUSTER         CLOUDY    25  15  66 N5        30.01S WCI  19
ELLSWORTH AFB  CLOUDY    26  10  52 NW9       30.04S WCI  16
PHILIP         CLOUDY    11   6  81 W12       30.07F WCI  -3
PINE RIDGE     CLOUDY    23  21  92 CALM      30.04R
SPEARFISH      FAIR      19   7  58 W9        30.07R WCI   9
WINNER         PTSUNNY   20  16  84 NW3       30.05F
$$

SDZ004>011-016>023-039-040-161200-
NORTHEAST SOUTH DAKOTA

CITY           SKY/WX    TMP DP  RH WIND       PRES   REMARKS
ABERDEEN       CLOUDY     0  -5  79 S6        30.10S WCI -12
WATERTOWN      CLOUDY    11  10  96 CALM      30.08R FOG
BROOKINGS      CLOUDY    14  10  84 CALM      30.09F
SISSETON         N/A     17  13  84 E3        30.08S
$$

SDZ017-020-022-023-036>040-048>070-161200-
SOUTHEAST SOUTH DAKOTA

CITY           SKY/WX    TMP DP  RH WIND       PRES   REMARKS
SIOUX FALLS    CLOUDY    24  20  84 CALM      30.09F
HURON          CLOUDY     7   5  91 CALM      30.11S
CHAMBERLAIN    CLOUDY    18  15  88 W3        30.07F
MITCHELL       CLOUDY    18  15  88 NW6       30.09F WCI  10
YANKTON        CLOUDY    30  27  86 E7        30.08S WCI  23
$$

ABBREVIATIONS USED IN REMARKS
   TC - TEMPERATURE IN CELSIUS
  WCI - WIND CHILL INDEX
   HX - HEAT INDEX
  VSB - VISIBILITY





USA.gov is the U.S. government's official web portal to all federal, state and local government web resources and services.